TimeEDT,TemperatureF,Dew PointF,Humidity,Sea Level PressureIn,VisibilityMPH,Wind Direction,Wind SpeedMPH,Gust SpeedMPH,PrecipitationIn,Events,Conditions,WindDirDegrees,DateUTC
12:15 AM,66.4,61.3,84,30.21,10.0,NW,5.8,-,N/A,,Clear,310,2013-09-06 04:15:00
12:35 AM,64.8,60.4,86,30.20,10.0,Calm,Calm,-,N/A,,Clear,0,2013-09-06 04:35:00
12:55 AM,61.3,60.1,96,30.21,10.0,Calm,Calm,-,N/A,,Clear,0,2013-09-06 04:55:00
1:15 AM,61.2,60.6,98,30.21,10.0,Calm,Calm,-,N/A,,Clear,0,2013-09-06 05:15:00
1:35 AM,59.9,59.4,98,30.21,10.0,Calm,Calm,-,N/A,,Clear,0,2013-09-06 05:35:00
1:55 AM,59.5,59.2,99,30.21,10.0,Calm,Calm,-,N/A,,Clear,0,2013-09-06 05:55:00
2:15 AM,59.2,59.2,100,30.21,10.0,Calm,Calm,-,N/A,,Clear,0,2013-09-06 06:15:00
2:35 AM,59.0,59.0,100,30.21,10.0,Calm,Calm,-,N/A,,Clear,0,2013-09-06 06:35:00
2:55 AM,59.5,59.5,100,30.21,10.0,Calm,Calm,-,N/A,,Clear,0,2013-09-06 06:55:00
3:15 AM,58.5,58.5,100,30.20,7.0,Calm,Calm,-,N/A,,Clear,0,2013-09-06 07:15:00
3:35 AM,59.2,59.2,100,30.20,10.0,Calm,Calm,-,N/A,,Clear,0,2013-09-06 07:35:00
3:55 AM,58.6,58.6,100,30.21,7.0,Calm,Calm,-,N/A,,Clear,0,2013-09-06 07:55:00
4:15 AM,58.5,58.5,100,30.21,5.0,Calm,Calm,-,N/A,,Clear,0,2013-09-06 08:15:00
4:35 AM,58.5,58.5,100,30.21,7.0,Calm,Calm,-,N/A,,Clear,0,2013-09-06 08:35:00
4:55 AM,56.8,56.8,100,30.21,5.0,Calm,Calm,-,N/A,,Clear,0,2013-09-06 08:55:00
5:15 AM,57.0,57.0,100,30.21,7.0,Calm,Calm,-,N/A,,Clear,0,2013-09-06 09:15:00
5:35 AM,56.8,56.8,100,30.22,7.0,Calm,Calm,-,N/A,,Clear,0,2013-09-06 09:35:00
5:55 AM,55.9,55.9,100,30.22,7.0,Calm,Calm,-,N/A,,Clear,0,2013-09-06 09:55:00
6:15 AM,55.9,55.9,100,30.22,10.0,Calm,Calm,-,N/A,,Clear,0,2013-09-06 10:15:00
6:35 AM,55.8,55.8,100,30.22,10.0,Calm,Calm,-,N/A,,Clear,0,2013-09-06 10:35:00
6:55 AM,55.6,55.6,100,30.23,10.0,Calm,Calm,-,N/A,,Clear,0,2013-09-06 10:55:00
7:15 AM,54.5,54.5,100,30.24,5.0,Calm,Calm,-,N/A,,Clear,0,2013-09-06 11:15:00
7:35 AM,55.9,55.9,100,30.26,7.0,Calm,Calm,-,N/A,,Clear,0,2013-09-06 11:35:00
7:55 AM,58.6,58.6,100,30.26,5.0,Calm,Calm,-,N/A,,Clear,0,2013-09-06 11:55:00
8:15 AM,61.3,61.3,100,30.27,10.0,Calm,Calm,-,N/A,,Clear,0,2013-09-06 12:15:00
8:35 AM,62.6,62.1,98,30.27,10.0,Calm,Calm,-,N/A,,Clear,0,2013-09-06 12:35:00
8:55 AM,64.9,62.2,91,30.28,10.0,Calm,Calm,-,N/A,,Clear,0,2013-09-06 12:55:00
9:15 AM,66.2,61.9,86,30.28,10.0,Calm,Calm,-,N/A,,Clear,0,2013-09-06 13:15:00
9:35 AM,69.3,57.7,67,30.28,10.0,ENE,6.9,-,N/A,,Clear,60,2013-09-06 13:35:00
9:55 AM,70.9,57.6,63,30.29,10.0,ENE,3.5,-,N/A,,Clear,60,2013-09-06 13:55:00
10:15 AM,71.8,57.2,60,30.29,10.0,ENE,5.8,-,N/A,,Clear,70,2013-09-06 14:15:00
10:35 AM,72.7,57.4,59,30.29,10.0,NE,4.6,-,N/A,,Clear,40,2013-09-06 14:35:00
10:55 AM,73.8,57.6,57,30.29,10.0,East,3.5,-,N/A,,Clear,80,2013-09-06 14:55:00
11:15 AM,74.1,57.0,55,30.29,10.0,ESE,5.8,-,N/A,,Clear,120,2013-09-06 15:15:00
11:35 AM,74.5,57.2,55,30.29,10.0,ESE,5.8,-,N/A,,Clear,120,2013-09-06 15:35:00
11:55 AM,75.0,57.2,54,30.28,10.0,Calm,Calm,-,N/A,,Clear,0,2013-09-06 15:55:00
12:15 PM,75.7,57.7,53,30.27,10.0,ESE,4.6,-,N/A,,Scattered Clouds,120,2013-09-06 16:15:00
12:35 PM,75.6,57.7,54,30.27,10.0,Calm,Calm,-,N/A,,Mostly Cloudy,0,2013-09-06 16:35:00
12:55 PM,76.5,58.8,54,30.26,10.0,ESE,5.8,-,N/A,,Mostly Cloudy,120,2013-09-06 16:55:00
1:15 PM,76.6,58.5,53,30.26,10.0,ENE,3.5,-,N/A,,Mostly Cloudy,70,2013-09-06 17:15:00
1:35 PM,77.9,59.2,52,30.25,10.0,Calm,Calm,-,N/A,,Scattered Clouds,0,2013-09-06 17:35:00
1:55 PM,77.9,59.0,52,30.24,10.0,Calm,Calm,-,N/A,,Scattered Clouds,0,2013-09-06 17:55:00
2:15 PM,78.3,59.2,52,30.23,10.0,SSE,4.6,-,N/A,,Scattered Clouds,150,2013-09-06 18:15:00
2:35 PM,78.4,60.1,53,30.22,10.0,South,5.8,-,N/A,,Clear,170,2013-09-06 18:35:00
2:55 PM,79.7,59.9,51,30.21,10.0,SE,4.6,-,N/A,,Clear,140,2013-09-06 18:55:00
3:15 PM,79.7,59.5,50,30.21,10.0,SSW,3.5,-,N/A,,Scattered Clouds,200,2013-09-06 19:15:00
3:35 PM,79.5,58.1,48,30.20,10.0,Calm,Calm,-,N/A,,Scattered Clouds,0,2013-09-06 19:35:00
3:55 PM,78.8,59.0,51,30.19,10.0,Calm,Calm,-,N/A,,Clear,0,2013-09-06 19:55:00
4:15 PM,79.5,59.0,49,30.18,10.0,South,3.5,-,N/A,,Clear,180,2013-09-06 20:15:00
4:35 PM,79.9,59.7,50,30.18,10.0,East,3.5,-,N/A,,Clear,80,2013-09-06 20:35:00
4:55 PM,80.1,59.5,49,30.18,10.0,East,4.6,-,N/A,,Clear,100,2013-09-06 20:55:00
5:15 PM,80.8,61.2,51,30.17,10.0,ESE,4.6,-,N/A,,Scattered Clouds,120,2013-09-06 21:15:00
5:35 PM,79.3,61.0,53,30.17,10.0,ESE,4.6,-,N/A,,Mostly Cloudy,110,2013-09-06 21:35:00
5:55 PM,77.5,61.3,57,30.17,10.0,Calm,Calm,-,N/A,,Mostly Cloudy,0,2013-09-06 21:55:00
6:15 PM,79.3,61.5,54,30.17,10.0,ESE,4.6,-,N/A,,Overcast,110,2013-09-06 22:15:00
6:35 PM,78.3,61.5,56,30.17,10.0,ESE,3.5,-,N/A,,Mostly Cloudy,110,2013-09-06 22:35:00
6:55 PM,77.4,62.6,60,30.17,10.0,Calm,Calm,-,N/A,,Scattered Clouds,0,2013-09-06 22:55:00
7:15 PM,75.6,65.8,72,30.17,10.0,Calm,Calm,-,N/A,,Clear,0,2013-09-06 23:15:00
7:35 PM,71.4,67.3,87,30.16,10.0,Calm,Calm,-,N/A,,Clear,0,2013-09-06 23:35:00
7:55 PM,68.7,66.7,93,30.17,10.0,Calm,Calm,-,N/A,,Scattered Clouds,0,2013-09-06 23:55:00
8:15 PM,67.8,66.2,95,30.17,10.0,Calm,Calm,-,N/A,,Mostly Cloudy,0,2013-09-07 00:15:00
8:35 PM,67.8,66.2,95,30.18,10.0,Calm,Calm,-,N/A,,Overcast,0,2013-09-07 00:35:00
8:55 PM,68.5,65.7,90,30.19,10.0,ENE,3.5,-,N/A,,Overcast,70,2013-09-07 00:55:00
9:15 PM,68.2,65.3,90,30.19,10.0,Calm,Calm,-,N/A,,Mostly Cloudy,0,2013-09-07 01:15:00
9:35 PM,69.1,64.0,84,30.20,10.0,East,3.5,-,N/A,,Mostly Cloudy,80,2013-09-07 01:35:00
9:55 PM,69.3,63.1,81,30.20,10.0,Calm,Calm,-,N/A,,Scattered Clouds,0,2013-09-07 01:55:00
10:15 PM,68.9,64.4,86,30.20,10.0,Calm,Calm,-,N/A,,Overcast,0,2013-09-07 02:15:00
10:35 PM,69.1,66.2,91,30.20,10.0,Calm,Calm,-,N/A,,Overcast,0,2013-09-07 02:35:00
10:55 PM,68.9,66.6,92,30.21,10.0,Calm,Calm,-,N/A,,Overcast,0,2013-09-07 02:55:00
11:15 PM,68.2,66.7,95,30.20,10.0,Calm,Calm,-,N/A,,Overcast,0,2013-09-07 03:15:00
11:35 PM,68.2,66.2,93,30.21,10.0,North,3.5,-,N/A,,Overcast,360,2013-09-07 03:35:00
11:55 PM,67.6,66.2,95,30.21,10.0,North,3.5,-,N/A,,Mostly Cloudy,10,2013-09-07 03:55:00